Regional Weather Roundup
Issued by NWS

Home | Current Version | Previous Version | Text Only | Print | Product List | Glossary Off
Versions: 1 2 3 4 5 6 7 8 9 10 11 12 13 14 15 16 17 18 19 20 21 22 23 24 25 26 27 28 29 30 31 32 33 34 35 36 37 38 39 40 41 42 43 44 45 46 47 48 49 50

000
ASUS43 KMPX 230601
RWRMN
WEATHER ROUNDUP FOR MINNESOTA
NATIONAL WEATHER SERVICE TWIN CITIES/CHANHASSEN MN
100 AM CDT SUN APR 23 2017


NOTE: "FAIR" INDICATES FEW OR NO CLOUDS BELOW 12,000 FEET WITH NO
SIGNIFICANT WEATHER AND/OR OBSTRUCTIONS TO VISIBILITY. N/A MEANS
CURRENT SKY AND/OR WEATHER CONDITIONS ARE NOT AVAILABLE.

MNZ060>063-068>070-230700-
   Twin Cities Metro

CITY           SKY/WX    TMP DP  RH WIND       PRES   REMARKS
TWIN CITIES    CLEAR     55  35  47 SW7       30.08F
6HR MIN TEMP:  55; 6HR MAX TEMP:  67;

ST PAUL        CLEAR     49  43  80 CALM      30.08F
CRYSTAL        CLEAR     50  35  56 SW6       30.07F
LAKEVILLE      CLEAR     52  37  58 SW3       30.09F
EDEN PRAIRIE   CLEAR     51  36  56 SW3       30.08S
6HR MIN TEMP:  51; 6HR MAX TEMP:  68;

SOUTH ST PAUL  CLEAR     50  37  62 CALM      30.08F
LAKE ELMO      FAIR      43  37  81 S3        30.08F
$$
MNZ001>005-007-008-013>017-022>024-027-028-230700-
   Northwest Minnesota

CITY           SKY/WX    TMP DP  RH WIND       PRES   REMARKS
BEMIDJI        LGT RAIN  35  33  92 N10       30.17R WCI  28
HALLOCK        CLOUDY    30  19  64 N13       30.27R WCI  20
ROSEAU         CLOUDY    30  23  74 N13       30.24S WCI  20
WARROAD        CLOUDY    30  21  69 N10G16    30.24S WCI  21
THIEF RVR FALL CLOUDY    32  26  78 N17       30.22S WCI  21
CROOKSTON      CLOUDY    34  27  75 N14       30.23R WCI  24
FOSSTON        FLURRIES  30  27  86 N12       30.18F WCI  21
DETROIT LAKES  LGT RAIN  41  36  81 NE14G21   30.14R
MOORHEAD       CLOUDY    37  34  87 N20       30.17R
PARK RAPIDS    CLOUDY    41  33  73 NE10G21   30.13R
MAHNOMEN       LGT RAIN  35  33  92 NE16G23   30.15S WCI  25
$$
MNZ006-009>011-018-025>026-230700-
   North Central Minnesota

CITY           SKY/WX    TMP DP  RH WIND       PRES   REMARKS
BAUDETTE       CLOUDY    34  26  72 N8        30.21R WCI  27
FLAG ISLAND    CLOUDY    32  23  69 N20       30.24R WCI  20
INTL FALLS     CLOUDY    34  28  79 N9        30.19R WCI  27
6HR MIN TEMP:  33; 6HR MAX TEMP:  41; 6HR PCP:  0.11;

WASKISH        CLOUDY    32  30  93 NE6       30.19F WCI  26
BIG FORK       FLURRIES  36  34  93 N7        30.17R
LONGVILLE      DRIZZLE   39  37  93 N7        30.13R
GRAND RAPIDS   LGT RAIN  39  37  92 N9        30.15R
CRANE LAKE     LGT SNOW  32  30  93 N9        30.20R WCI  24
ORR            FLURRIES  36  32  87 MISG      30.14R
COOK           RAIN      36  34  93 N7        30.15R
WALKER         LGT RAIN  36  34  92 N9        30.14R
$$
MNZ012-019>021-037-230700-
   Northeast Minnesota

CITY           SKY/WX    TMP DP  RH WIND       PRES   REMARKS
DULUTH         MOCLDY    45  38  76 N9        30.07S
6HR MIN TEMP:  44; 6HR MAX TEMP:  63; 6HR PCP: TRACE;

ELY            LGT RAIN  36  36 100 N5        30.12R
HIBBING        LGT RAIN  38  37  97 N12       30.12R
EVELETH        RAIN      40  36  86 NW7       30.14R
DULUTH HARBOR  CLOUDY    43  39  87 E7        30.09R
TWO HARBORS    CLOUDY    46  39  76 N7        30.06R
SILVER BAY     RAIN      43  41  93 CALM      30.06F
GRAND MARAIS     N/A     44  35  70 N7G17     30.10R
G MARAIS ARPRT CLOUDY    34  28  80 NW8G18    30.06R WCI  27
$$
MNZ029>031-032-039>041-046>048-054>057-064-230700-
   West Central Minnesota

CITY           SKY/WX    TMP DP  RH WIND       PRES   REMARKS
FERGUS FALLS   CLOUDY    45  39  81 NE10G16   30.08R
WHEATON        CLOUDY    41  37  87 NW10G20   30.13R
MORRIS         CLEAR     46  43  87 NW13      30.07R
ALEXANDRIA     CLEAR     50  38  63 W7        30.06S
ELBOW LAKE     FAIR      45  42  90 W8        30.07R
WADENA         PTCLDY    45  36  70 N12G20    30.10R
GLENWOOD       CLEAR     52  39  62 W10       30.06S
APPLETON       CLEAR     54  37  54 SW10      30.06F
BENSON         CLEAR     52  36  54 W9        30.08F
ORTONVILLE     CLOUDY    48  39  71 N14       30.09R
MADISON        CLEAR     54  39  58 SW9       30.07F
WILLMAR        FAIR      50  37  62 SW9       30.09F
$$
MNZ033>034-036-042>043-049>051-058-059-230700-
   Central Minnesota

CITY           SKY/WX    TMP DP  RH WIND       PRES   REMARKS
ST CLOUD       CLEAR     50  38  63 SW7       30.05F
6HR MIN TEMP:  48; 6HR MAX TEMP:  66;

SAUK CENTRE    FAIR      52  39  61 SW12      30.05S
PAYNESVILLE    CLEAR     55  36  49 SW9       30.07S
AITKIN         CLOUDY    48  36  61 N10       30.08R
PINE RIVER     CLOUDY    43  37  81 N13G20    30.13S
BRAINERD       CLOUDY    48  39  71 N15G23    30.08R
STAPLES        CLOUDY    45  36  70 NE8G20    30.09R
LONG PRAIRIE   FAIR      50  37  62 SW6       30.05S
LITTLE FALLS   MOCLDY    52  36  54 SW3       30.04S
BUFFALO        CLEAR     52  38  58 CALM      30.08F
MAPLE LAKE     CLEAR     53  40  61 CALM      30.07F
HUTCHINSON     CLOUDY    50  39  65 SW5       30.10F
$$
MNZ037-044-045-052-053-230700-
   East Central Minnesota

CITY           SKY/WX    TMP DP  RH WIND       PRES   REMARKS
PRINCETON      CLEAR     54  37  54 S3        30.05S
MORA           CLOUDY    48  37  66 S3        30.05F
CAMBRIDGE      CLEAR     54  39  58 S3        30.04S
RUSH CITY      CLOUDY    51  35  55 SW5       30.05F
MOOSE LAKE     CLOUDY    48  39  71 N8        30.06R
HINCKLEY       FAIR      46  39  76 SW3       30.03F
CLOQUET        CLOUDY    46  36  66 N8G16     30.09R
MCGREGOR       CLOUDY    46  39  76 N7        30.09R
$$
MNZ071>073-080-081-089-090-097-098-230700-
   Southwest Minnesota

CITY           SKY/WX    TMP DP  RH WIND       PRES   REMARKS
MONTEVIDEO     CLEAR     54  37  54 W8        30.08F
GRANITE FALLS  CLEAR     50  39  66 S8        30.10F
CANBY          CLEAR     54  37  54 SW7       30.09F
MARSHALL       CLEAR     50  37  61 SW9       30.10F
REDWOOD FALLS  CLEAR     51  36  56 SW10      30.10F
OLIVIA         CLEAR     46  36  66 SW7       30.08F
PIPESTONE      CLEAR     45  34  65 SW5       30.14S
WINDOM         CLEAR     48  36  61 W3        30.14S
WORTHINGTON    CLEAR     51  34  52 SW13      30.15S
JACKSON        CLEAR     50  34  53 SW8       30.15S
TRACY          CLEAR     50  39  66 SW9       30.13S
SLAYTON        CLEAR     50  37  62 SW12      30.15R
$$
MNZ065>067-074>077-082>085-091>093-230700-
   South Central Minnesota

CITY           SKY/WX    TMP DP  RH WIND       PRES   REMARKS
MANKATO        CLEAR     54  35  48 SW6       30.12S
NEW ULM        CLEAR     46  36  66 W5        30.11S
ST JAMES       CLEAR     46  39  76 SW7       30.14R
FAIRMONT       CLEAR     50  37  61 SW7       30.14S
GLENCOE        CLEAR     51  41  69 CALM      30.09F
FARIBAULT      PTCLDY    50  39  66 CALM      30.12S
OWATONNA       CLEAR     48  37  66 SW5       30.12S
WASECA         CLEAR     46  36  66 CALM      30.13S
ALBERT LEA     CLEAR     48  43  81 SW3       30.13S
$$
MNZ078>079-086>088-094>096-230700-
   Southeast Minnesota

CITY           SKY/WX    TMP DP  RH WIND       PRES   REMARKS
ROCHESTER      CLEAR     47  37  68 S7        30.12F
6HR MIN TEMP:  46; 6HR MAX TEMP:  64;

RED WING       CLEAR     45  37  76 CALM      30.09S
STANTON        CLEAR     46  38  73 SW5       30.10S
DODGE CENTER   CLEAR     46  37  71 SW3       30.12F
WINONA         CLEAR     48  41  76 CALM      30.12F
AUSTIN         CLEAR     48  36  61 SW5       30.13S
PRESTON        CLEAR     48  32  53 SW8       30.13F
$$
ABBREVIATIONS USED IN REMARKS
   TC - TEMPERATURES IN CELSIUS
  WCI - WIND CHILL INDEX
   HX - HEAT INDEX
  VSB - VISIBILITY
$$




USA.gov is the U.S. government's official web portal to all federal, state and local government web resources and services.